Location: Newark
(23.1300°N, 73.6109°E)
Time: 16:49:47
(UTC+00:00)

AO-7 - Pass Details

Date: 14 July 2020
Orbit: 1440 x 1458 km, 101.8° (Epoch: 05 August)

Event Time Altitude Azimuth Distance (km) Brightness Sun altitude
Rises 22:39:44 0° 17° (NNE) 4,563 ? -22.5°
Reaches altitude 10° 22:42:31 10° 19° (NNE) 3,583 ? -22.0°
Maximum altitude 22:50:54 80° 105° (ESE) 1,478 ? -20.4°
Enters shadow 22:58:28 14° 192° (SSW) 3,293 ? -19.0°
